Location: Hochstatterhof
(48.7256°N, 10.3487°E)
Time: 01:56:17
(UTC+00:00)

NOSS 2-2 (D) - Pass Details

Date: 26 September 2023
Orbit: 414 x 1757 km, 63.3° (Epoch: 29 October)

Event Time Altitude Azimuth Distance (km) Brightness Sun altitude
Exits shadow 03:12:48 22° 307° (NW) 1,505 5.2 -19.7°
Maximum altitude 03:15:52 62° 232° (SW) 901 4.0 -19.3°
Drops below altitude 10° 03:22:17 10° 154° (SSE) 2,854 7.0 -18.3°
Sets 03:25:26 0° 151° (SSE) 4,041 7.8 -17.8°
